GW0651 Weather Reports


Display with metric or nautical units.
time (UTC)temp
F
wind
direction
speed
MPH
gust
MPH
rain 1hr
in
rain 24hr
in
rain mn
in
humidity
%
barometer
mb
20230130091532 39 263 13.0 22.0 0.00 0.11 0.11 86 994.7
20230130091029 39 258 9.0 20.0 0.00 0.11 0.11 86 994.9
20230130090531 39 265 9.0 19.0 0.00 0.11 0.11 87 994.8
20230130090055 39 259 10.0 26.0 0.00 0.11 0.11 86 994.8
20230130085528 39 236 13.0 26.0 0.00 0.11 0.11 86 994.9
20230130085028 39 271 12.0 26.0 0.00 0.11 0.11 87 995.1
20230130084536 39 301 11.0 21.0 0.00 0.11 0.11 86 995.0
20230130084028 39 278 13.0 22.0 0.00 0.11 0.11 86 994.8
20230130083528 39 246 13.0 23.0 0.00 0.11 0.11 86 995.0
20230130083035 39 283 13.0 23.0 0.00 0.11 0.11 86 995.1
20230130082528 39 276 11.0 24.0 0.00 0.11 0.11 86 994.9
20230130082029 39 238 12.0 24.0 0.00 0.11 0.11 86 995.0
20230130081539 39 223 11.0 21.0 0.00 0.11 0.11 86 995.2
20230130081028 39 275 12.0 21.0 0.00 0.11 0.11 86 995.2
20230130080528 39 280 10.0 20.0 0.00 0.11 0.11 86 995.3
20230130080036 39 271 10.0 20.0 0.00 0.11 0.11 86 995.4
20230130075527 39 240 10.0 20.0 0.00 0.11 0.11 86 995.3
20230130075028 39 271 10.0 20.0 0.00 0.11 0.11 85 995.4
20230130074533 39 279 11.0 25.0 0.00 0.11 0.11 85 995.5
20230130074027 39 282 10.0 27.0 0.00 0.11 0.11 85 995.3
20230130073528 39 270 12.0 27.0 0.00 0.11 0.11 85 995.3
20230130073038 39 229 13.0 26.0 0.00 0.11 0.11 85 995.1
20230130072532 39 257 12.0 24.0 0.00 0.11 0.11 85 995.2
20230130072027 39 263 11.0 26.0 0.00 0.11 0.11 85 995.3
20230130071540 39 259 8.0 26.0 0.00 0.11 0.11 85 995.1
20230130071030 39 267 13.0 26.0 0.00 0.11 0.11 86 995.2
20230130070531 39 259 10.0 21.0 0.00 0.11 0.11 85 995.3
20230130070047 39 236 10.0 21.0 0.00 0.11 0.11 85 995.2
20230130065528 39 274 10.0 22.0 0.00 0.11 0.11 86 995.3
20230130065027 39 261 13.0 22.0 0.00 0.11 0.11 86 995.3
20230130064542 39 262 11.0 24.0 0.00 0.11 0.11 86 995.2
20230130064029 39 259 11.0 24.0 0.00 0.11 0.11 87 995.3
20230130063533 39 260 12.0 24.0 0.00 0.11 0.11 87 995.3
20230130063035 39 228 12.0 20.0 0.00 0.11 0.11 88 995.3
20230130062531 39 271 10.0 20.0 0.00 0.11 0.11 88 995.3
20230130062028 39 265 12.0 20.0 0.00 0.11 0.11 89 995.5
20230130061535 39 259 9.0 18.0 0.00 0.11 0.11 88 995.5
20230130061028 39 284 9.0 20.0 0.00 0.11 0.11 89 995.5
20230130060527 38 246 8.0 24.0 0.00 0.11 0.11 89 995.6
20230130060044 38 241 9.0 24.0 0.00 0.11 0.11 89 995.6
20230130055528 38 279 6.0 19.0 0.00 0.11 0.11 89 995.6
20230130055028 38 223 9.0 19.0 0.00 0.11 0.11 89 995.8
20230130054546 38 260 9.0 17.0 0.00 0.11 0.11 89 995.8
20230130054027 39 252 8.0 17.0 0.00 0.11 0.11 89 995.9
20230130053529 39 244 9.0 17.0 0.00 0.11 0.11 89 995.9
20230130053037 39 261 9.0 21.0 0.00 0.11 0.11 89 995.9
20230130052528 39 263 7.0 21.0 0.00 0.11 0.11 89 996.0
20230130052025 39 271 10.0 21.0 0.00 0.11 0.11 89 995.9
20230130051551 39 306 7.0 21.0 0.00 0.11 0.11 89 996.0
20230130051028 39 295 11.0 22.0 0.00 0.11 0.11 89 996.0
20230130050526 39 290 12.0 22.0 0.00 0.11 0.11 89 996.0
20230130050041 39 259 10.0 21.0 0.00 0.11 0.11 90 996.0
20230130045529 39 261 11.0 21.0 0.00 0.11 0.11 90 996.2
20230130045029 39 257 14.0 23.0 0.00 0.11 0.11 90 996.0
20230130044534 39 260 12.0 23.0 0.00 0.11 0.11 90 996.1
20230130044028 39 286 13.0 23.0 0.00 0.11 0.11 90 996.0
20230130043533 39 207 8.0 22.0 0.00 0.11 0.11 91 996.0
20230130043048 39 258 10.0 24.0 0.00 0.11 0.11 91 996.1
20230130042528 39 267 10.0 24.0 0.00 0.11 0.11 91 996.1
20230130042028 39 277 11.0 24.0 0.00 0.11 0.11 91 996.1
20230130041542 39 257 9.0 26.0 0.00 0.11 0.11 91 996.1
20230130041026 39 236 12.0 26.0 0.00 0.11 0.11 91 996.2
20230130040526 39 246 11.0 23.0 0.00 0.11 0.11 91 996.2
20230130040032 39 240 10.0 17.0 0.00 0.11 0.11 92 996.3
20230130035526 39 259 11.0 20.0 0.00 0.11 0.11 92 996.4
20230130035026 39 263 9.0 20.0 0.00 0.11 0.11 92 996.4
20230130034534 39 271 10.0 20.0 0.00 0.11 0.11 92 996.4
20230130034027 39 268 12.0 19.0 0.00 0.11 0.11 92 996.5
20230130033525 39 263 10.0 19.0 0.00 0.11 0.11 92 996.4
20230130033039 39 270 10.0 19.0 0.00 0.11 0.11 92 996.4
20230130032527 39 242 10.0 20.0 0.00 0.11 0.11 92 996.5
20230130032026 39 288 10.0 20.0 0.00 0.11 0.11 92 996.5
20230130031537 39 250 8.0 20.0 0.00 0.11 0.11 92 996.4
20230130031026 39 273 11.0 20.0 0.00 0.11 0.11 92 996.4
20230130030529 39 263 10.0 17.0 0.00 0.11 0.11 92 996.5
20230130030041 39 273 9.0 18.0 0.00 0.11 0.11 92 996.4
20230130025525 39 242 10.0 18.0 0.00 0.11 0.11 92 996.5
20230130025025 39 218 8.0 16.0 0.00 0.11 0.11 92 996.6
20230130024535 39 277 10.0 16.0 0.00 0.11 0.11 93 996.7
20230130024023 39 284 8.0 17.0 0.00 0.11 0.11 93 996.8
20230130023524 39 257 8.0 17.0 0.00 0.11 0.11 93 996.8
20230130023040 39 270 10.0 17.0 0.00 0.11 0.11 93 996.9
20230130022525 39 247 9.0 16.0 0.00 0.11 0.11 93 996.9
20230130022026 39 260 9.0 15.0 0.00 0.11 0.11 93 996.9
20230130021534 39 262 6.0 15.0 0.01 0.11 0.11 94 997.0
20230130021027 39 259 8.0 17.0 0.02 0.11 0.11 94 997.0
20230130020525 39 257 8.0 17.0 0.02 0.11 0.11 94 997.2
20230130020041 40 272 6.0 16.0 0.03 0.11 0.11 94 997.3
20230130015526 40 252 9.0 16.0 0.03 0.11 0.11 94 997.3
20230130015026 40 232 6.0 16.0 0.04 0.11 0.11 94 997.5
20230130014539 40 246 8.0 17.0 0.05 0.11 0.11 94 997.4
20230130014025 40 267 9.0 17.0 0.06 0.11 0.11 94 997.4
20230130013526 40 278 9.0 21.0 0.07 0.11 0.11 94 997.5
20230130013034 40 272 9.0 21.0 0.07 0.11 0.11 94 997.9
20230130012526 41 284 8.0 19.0 0.07 0.11 0.11 95 998.2
20230130012028 41 271 11.0 19.0 0.07 0.10 0.10 95 998.3
20230130011537 41 294 9.0 23.0 0.07 0.09 0.09 95 998.2
20230130011026 41 299 9.0 23.0 0.07 0.08 0.08 95 998.1
20230130010526 41 261 11.0 25.0 0.06 0.07 0.07 95 998.2
20230130010035 41 289 11.0 26.0 0.06 0.07 0.07 95 998.1
20230130005528 41 282 13.0 32.0 0.05 0.06 0.06 95 998.1
20230130005029 41 273 14.0 32.0 0.04 0.05 0.05 95 998.2
20230130004535 41 240 17.0 32.0 0.04 0.05 0.05 95 998.1
20230130004031 41 284 14.0 27.0 0.03 0.04 0.04 95 998.1
20230130003530 41 238 14.0 28.0 0.03 0.03 0.03 95 998.3
20230130003033 41 263 14.0 32.0 0.03 0.03 0.03 95 998.2
20230130002529 41 249 15.0 32.0 0.03 0.03 0.03 95 998.4
20230130002025 41 227 17.0 32.0 0.03 0.03 0.03 95 998.2
20230130001536 41 234 13.0 24.0 0.02 0.02 0.02 95 998.3
20230130001026 41 239 13.0 24.0 0.01 0.01 0.01 95 998.4
20230130000525 41 245 12.0 25.0 0.01 0.01 0.01 95 998.4
20230130000046 41 256 13.0 25.0 0.01 0.01 0.01 95 998.5
20230129235529 41 243 13.0 22.0 0.00 0.00 0.00 95 998.5
20230129235029 41 208 12.0 26.0 0.00 0.00 0.00 95 998.6
20230129234535 41 300 13.0 28.0 0.00 0.00 0.00 95 998.7
20230129234031 41 254 12.0 29.0 0.00 0.00 0.00 95 998.9
20230129233528 41 267 13.0 30.0 0.00 0.00 0.00 95 999.1
20230129233037 41 229 14.0 30.0 0.00 0.00 0.00 95 999.3
20230129232528 41 273 17.0 27.0 0.00 0.00 0.00 95 999.4
20230129232028 41 259 14.0 25.0 0.00 0.00 0.00 95 999.5
20230129231534 40 252 12.0 25.0 0.00 0.00 0.00 95 999.8
20230129231029 40 258 13.0 25.0 0.00 0.00 0.00 94 999.8
20230129230528 40 259 12.0 23.0 0.00 0.00 0.00 94 1000.0
20230129230040 40 268 13.0 23.0 0.00 0.00 0.00 94 1000.3
20230129225529 40 219 14.0 26.0 0.00 0.00 0.00 94 1000.4
20230129225027 40 273 13.0 26.0 0.00 0.00 0.00 94 1000.5
20230129224533 40 252 13.0 26.0 0.00 0.00 0.00 93 1000.7
20230129224027 40 209 12.0 26.0 0.00 0.00 0.00 93 1000.8
20230129223528 40 248 15.0 26.0 0.00 0.00 0.00 93 1000.8
20230129223042 40 269 12.0 26.0 0.00 0.00 0.00 92 1001.0
20230129222525 40 250 12.0 26.0 0.00 0.00 0.00 92 1001.1
20230129222026 41 247 15.0 26.0 0.00 0.00 0.00 92 1001.3
20230129221536 41 244 14.0 26.0 0.00 0.00 0.00 91 1001.6
20230129221025 41 241 15.0 26.0 0.00 0.00 0.00 91 1001.7
20230129220526 41 277 14.0 26.0 0.00 0.00 0.00 90 1001.7
20230129220100 41 261 13.0 30.0 0.00 0.00 0.00 90 1001.8
20230129215525 41 246 14.0 30.0 0.00 0.00 0.00 90 1001.9
20230129215026 41 283 12.0 25.0 0.00 0.00 0.00 89 1002.3
20230129214537 41 250 12.0 27.0 0.00 0.00 0.00 89 1002.3
20230129214031 41 238 13.0 27.0 0.00 0.00 0.00 89 1002.6
20230129213526 41 253 12.0 27.0 0.00 0.00 0.00 88 1002.6
20230129213039 41 225 15.0 25.0 0.00 0.00 0.00 88 1002.6
20230129212526 41 242 13.0 25.0 0.00 0.00 0.00 88 1002.8
20230129212025 41 248 14.0 25.0 0.00 0.00 0.00 88 1002.8
20230129211535 41 232 14.0 25.0 0.00 0.00 0.00 88 1002.8
20230129211030 41 263 15.0 25.0 0.00 0.00 0.00 88 1003.0
20230129210526 41 246 13.0 29.0 0.00 0.00 0.00 88 1003.2
20230129210036 41 271 15.0 29.0 0.00 0.00 0.00 88 1003.7
20230129205528 41 250 11.0 26.0 0.00 0.00 0.00 89 1003.8
20230129205026 41 232 16.0 26.0 0.00 0.00 0.00 89 1004.0
20230129204547 41 272 13.0 33.0 0.00 0.00 0.00 89 1004.2
20230129204026 41 241 13.0 34.0 0.00 0.00 0.00 89 1004.3
20230129203526 41 235 14.0 34.0 0.00 0.00 0.00 89 1004.4
20230129203038 41 229 15.0 25.0 0.00 0.00 0.00 89 1004.6
20230129202529 41 249 13.0 27.0 0.00 0.00 0.00 89 1004.7
20230129202026 41 248 13.0 27.0 0.00 0.00 0.00 89 1004.8
20230129201535 41 234 12.0 25.0 0.00 0.00 0.00 89 1005.0
20230129201030 41 250 11.0 25.0 0.00 0.00 0.00 89 1004.9
20230129200528 41 232 14.0 25.0 0.00 0.00 0.00 89 1005.1
20230129200042 41 259 12.0 26.0 0.00 0.00 0.00 89 1005.1
20230129195525 41 212 15.0 26.0 0.00 0.00 0.00 89 1005.1
20230129195028 41 254 13.0 27.0 0.00 0.00 0.00 89 1005.1
20230129194545 41 224 15.0 28.0 0.00 0.00 0.00 89 1005.1
20230129194027 40 199 14.0 28.0 0.00 0.00 0.00 89 1005.1
20230129193528 40 228 10.0 24.0 0.00 0.00 0.00 89 1005.3
20230129193035 40 195 14.0 24.0 0.00 0.00 0.00 88 1005.3
20230129192527 40 194 12.0 19.0 0.00 0.00 0.00 88 1005.3
20230129192028 40 254 12.0 18.0 0.00 0.00 0.00 88 1005.4
20230129191533 40 240 11.0 18.0 0.00 0.00 0.00 88 1005.4
20230129191026 40 238 13.0 21.0 0.00 0.00 0.00 88 1005.6
20230129190528 40 227 12.0 21.0 0.00 0.00 0.00 88 1005.7
20230129190042 40 252 10.0 19.0 0.00 0.00 0.00 88 1005.8
20230129185529 40 234 10.0 19.0 0.00 0.00 0.00 88 1005.9
20230129185026 40 206 10.0 22.0 0.00 0.00 0.00 88 1006.1
20230129184547 40 227 12.0 22.0 0.00 0.00 0.00 88 1006.3
20230129184028 40 233 10.0 22.0 0.00 0.00 0.00 87 1006.6
20230129183531 40 246 13.0 22.0 0.00 0.00 0.00 87 1006.6
20230129183038 40 256 10.0 21.0 0.00 0.00 0.00 87 1006.9
20230129182525 40 243 11.0 21.0 0.00 0.00 0.00 87 1007.1
20230129182026 40 230 12.0 19.0 0.00 0.00 0.00 87 1007.1
20230129181535 40 232 12.0 24.0 0.00 0.00 0.00 87 1007.2
20230129181025 40 234 10.0 24.0 0.00 0.00 0.00 87 1007.4
20230129180526 40 280 13.0 24.0 0.00 0.00 0.00 87 1007.5
20230129180039 40 238 13.0 22.0 0.00 0.00 0.00 88 1007.5
20230129175527 40 234 11.0 20.0 0.00 0.00 0.00 88 1007.8
20230129175027 40 224 12.0 21.0 0.00 0.00 0.00 88 1007.9
20230129174542 40 224 14.0 21.0 0.00 0.00 0.00 88 1008.0
20230129174027 40 243 11.0 22.0 0.00 0.00 0.00 88 1008.0
20230129173528 40 231 11.0 22.0 0.00 0.00 0.00 87 1008.2
20230129173042 40 217 11.0 19.0 0.00 0.00 0.00 87 1008.5
20230129172532 40 265 9.0 19.0 0.00 0.00 0.00 87 1008.6
20230129172028 40 230 12.0 20.0 0.00 0.00 0.00 86 1008.8
20230129171541 40 251 10.0 20.0 0.00 0.00 0.00 86 1008.9
20230129171033 40 250 10.0 20.0 0.00 0.00 0.00 86 1009.0
20230129170526 40 275 10.0 19.0 0.00 0.00 0.00 86 1008.9
20230129170038 40 227 12.0 19.0 0.00 0.00 0.00 85 1009.1
20230129165526 40 247 10.0 19.0 0.00 0.00 0.00 85 1009.0
20230129165028 40 275 7.0 19.0 0.00 0.00 0.00 85 1009.2
20230129164538 40 289 12.0 20.0 0.00 0.00 0.00 85 1009.3
20230129164028 40 242 11.0 20.0 0.00 0.00 0.00 85 1009.4
20230129163526 40 259 12.0 21.0 0.00 0.00 0.00 85 1009.5
20230129163037 40 231 13.0 22.0 0.00 0.00 0.00 85 1009.7
20230129162528 40 238 10.0 22.0 0.00 0.00 0.00 85 1009.6
20230129162031 40 261 9.0 21.0 0.00 0.00 0.00 85 1009.7
20230129161534 40 228 10.0 21.0 0.00 0.00 0.00 85 1010.1
20230129161031 40 232 11.0 20.0 0.00 0.00 0.00 85 1010.3
20230129160527 40 256 11.0 20.0 0.00 0.00 0.00 85 1010.3
20230129160045 40 273 9.0 19.0 0.00 0.00 0.00 85 1010.5
20230129155528 40 242 10.0 19.0 0.00 0.00 0.00 85 1010.6
20230129155027 40 266 11.0 19.0 0.00 0.00 0.00 86 1010.7
20230129154555 40 257 10.0 19.0 0.00 0.00 0.00 86 1010.6
20230129154026 40 219 11.0 19.0 0.00 0.00 0.00 86 1010.8
20230129153527 40 271 9.0 18.0 0.00 0.00 0.00 86 1011.0
20230129153109 40 234 8.0 18.0 0.00 0.00 0.00 87 1011.0
20230129152530 40 236 11.0 19.0 0.00 0.00 0.00 87 1011.0
20230129152027 40 254 10.0 19.0 0.00 0.00 0.00 87 1011.0
20230129151537 40 230 12.0 19.0 0.00 0.00 0.00 87 1011.2
20230129151027 40 240 10.0 18.0 0.00 0.00 0.00 87 1011.4
20230129150527 40 217 10.0 20.0 0.00 0.00 0.00 87 1011.4
20230129150034 40 254 10.0 20.0 0.00 0.00 0.00 87 1011.4
20230129145527 40 285 10.0 18.0 0.00 0.01 0.00 88 1011.4
20230129145027 40 254 8.0 17.0 0.00 0.01 0.00 88 1011.5
20230129144539 40 262 9.0 17.0 0.00 0.01 0.00 88 1011.7
20230129144026 40 256 9.0 17.0 0.00 0.01 0.00 88 1011.7
20230129143527 40 284 8.0 16.0 0.00 0.01 0.00 89 1011.9
20230129143036 40 273 10.0 16.0 0.00 0.01 0.00 89 1012.0
20230129142532 40 223 8.0 16.0 0.00 0.01 0.00 89 1012.1
20230129142027 40 255 10.0 17.0 0.00 0.01 0.00 89 1012.1
20230129141534 40 254 8.0 18.0 0.00 0.01 0.00 89 1012.1
20230129141027 40 234 10.0 18.0 0.00 0.01 0.00 89 1012.2
20230129140527 40 249 10.0 18.0 0.00 0.01 0.00 89 1012.2
20230129140054 40 242 10.0 24.0 0.00 0.01 0.00 89 1012.2
20230129135530 40 242 12.0 24.0 0.00 0.01 0.00 89 1012.3
20230129135026 40 262 12.0 24.0 0.00 0.01 0.00 89 1012.3
20230129134541 40 235 9.0 19.0 0.00 0.01 0.00 89 1012.3
20230129134026 40 261 11.0 18.0 0.00 0.01 0.00 89 1012.4
20230129133526 40 227 8.0 18.0 0.00 0.01 0.00 90 1012.5
20230129133033 40 243 9.0 18.0 0.00 0.01 0.00 90 1012.6
20230129132527 40 255 10.0 23.0 0.00 0.01 0.00 90 1012.6
20230129132026 40 279 13.0 23.0 0.00 0.01 0.00 91 1012.7
20230129131543 40 264 13.0 23.0 0.00 0.01 0.00 91 1012.8
20230129131028 40 241 10.0 19.0 0.00 0.01 0.00 91 1012.9
20230129130527 40 238 9.0 19.0 0.00 0.01 0.00 91 1012.9
20230129130048 40 238 9.0 19.0 0.00 0.01 0.00 91 1012.9
20230129125527 40 244 10.0 19.0 0.00 0.01 0.00 91 1013.0
20230129125027 40 263 10.0 19.0 0.00 0.01 0.00 91 1013.0
20230129124540 40 236 7.0 17.0 0.00 0.01 0.00 91 1013.1
20230129124027 40 235 9.0 17.0 0.00 0.01 0.00 91 1013.2
20230129123528 40 231 9.0 15.0 0.00 0.01 0.00 92 1013.3
20230129123035 40 239 8.0 20.0 0.00 0.01 0.00 92 1013.5
20230129122529 40 258 10.0 20.0 0.00 0.01 0.00 92 1013.5
20230129122029 40 243 9.0 21.0 0.00 0.01 0.00 92 1013.8
20230129121540 40 238 8.0 21.0 0.00 0.01 0.00 92 1013.9
20230129121028 40 266 13.0 23.0 0.00 0.01 0.00 92 1014.1
20230129120531 40 267 10.0 24.0 0.00 0.01 0.00 92 1014.2
20230129120040 40 271 12.0 24.0 0.00 0.01 0.00 92 1014.2
20230129115532 40 241 11.0 23.0 0.00 0.01 0.00 92 1014.1
20230129115028 40 246 11.0 20.0 0.00 0.01 0.00 92 1014.4
20230129114539 40 232 11.0 20.0 0.00 0.01 0.00 92 1014.5
20230129114029 40 255 8.0 16.0 0.00 0.01 0.00 92 1014.7
20230129113529 40 261 10.0 16.0 0.00 0.01 0.00 92 1014.9
20230129113033 40 220 8.0 14.0 0.00 0.01 0.00 92 1015.1
20230129112529 40 250 5.0 17.0 0.00 0.01 0.00 93 1015.2
20230129112028 40 273 9.0 17.0 0.00 0.01 0.00 93 1015.2
20230129111543 40 259 11.0 19.0 0.00 0.01 0.00 93 1015.3
20230129111028 40 270 6.0 19.0 0.00 0.01 0.00 93 1015.3
20230129110528 39 252 11.0 19.0 0.00 0.01 0.00 93 1015.4
20230129110043 39 220 8.0 16.0 0.00 0.01 0.00 94 1015.5
20230129105527 39 257 8.0 15.0 0.00 0.02 0.00 93 1015.7
20230129105028 39 265 6.0 17.0 0.00 0.02 0.00 94 1015.8
20230129104534 39 256 8.0 17.0 0.00 0.02 0.00 94 1015.9
20230129104027 39 250 10.0 17.0 0.00 0.02 0.00 94 1016.0
20230129103527 39 221 8.0 16.0 0.00 0.02 0.00 94 1015.9
20230129103040 39 253 8.0 16.0 0.00 0.02 0.00 94 1016.0
20230129102530 39 261 9.0 16.0 0.00 0.02 0.00 94 1016.0
20230129102027 39 236 7.0 14.0 0.00 0.02 0.00 94 1016.0
20230129101539 39 233 8.0 15.0 0.00 0.02 0.00 94 1016.0
20230129101027 39 234 7.0 15.0 0.00 0.02 0.00 94 1016.1
20230129100527 38 252 10.0 15.0 0.00 0.02 0.00 94 1016.0
20230129100042 38 248 8.0 15.0 0.00 0.02 0.00 94 1016.1
20230129095531 38 265 7.0 14.0 0.00 0.02 0.00 94 1016.1
20230129095028 38 245 9.0 15.0 0.00 0.02 0.00 94 1016.1
20230129094559 38 245 8.0 18.0 0.00 0.02 0.00 94 1016.2
20230129094028 38 232 10.0 18.0 0.00 0.02 0.00 94 1016.2
20230129093528 38 253 7.0 15.0 0.00 0.02 0.00 94 1016.2
20230129093036 38 241 10.0 16.0 0.00 0.02 0.00 94 1016.2
20230129092527 38 255 8.0 17.0 0.00 0.02 0.00 94 1016.3
20230129092027 38 260 8.0 17.0 0.00 0.02 0.00 94 1016.2